Weather History for KOMH - January, 2014

Change the Weather History Date:

Sunday, January 19, 2014

  Actual Average Record
Temperature  
Mean Temperature 38 °F -  
Max Temperature 51 °F 42 °F 72 °F (1951)
Min Temperature 26 °F 22 °F 2 °F (1965)
Degree Days  
Heating Degree Days 26    
Moisture  
Dew Point 26 °F    
Average Humidity 61    
Maximum Humidity 86    
Minimum Humidity 43    
Precipitation  
Precipitation 0.00 in - - ()
Sea Level Pressure  
Sea Level Pressure 29.85 in    
Wind  
Wind Speed 6 mph (South)    
Max Wind Speed 21 mph    
Max Gust Speed 29 mph    
Visibility 10 miles    
Events      
Averages and records for this station are not official NWS values.
T = Trace of Precipitation, MM = Missing Value Source: NWS Daily Summary

Daily Weather History Graph

Daily Weather History Graph

Search for Another Location

Airport or City:

Trip Planner

Search our weather history database for the weather conditions in past years. The results will help you decide how hot, cold, wet, or windy it might be!

Date:

Astronomy

Jan. 19, 2014 Rise Set
Actual Time 7:25 AM EST 5:20 PM EST
Civil Twilight 6:57 AM EST 5:48 PM EST
Nautical Twilight 6:25 AM EST 6:21 PM EST
Astronomical Twilight 5:53 AM EST 6:52 PM EST
Moon 8:52 PM EST (1/19) 8:58 AM EST (1/19)
Length of Visible Light 10h 51m
Length of Day
9h 54m
Waning Gibbous, 89% of the Moon is Illuminated
Jan 19
Waning Gibbous
Jan 24
Last Quarter
Jan 30
New
Feb 6
First Quarter
Feb 14
Full

Hourly Weather History & Observations

Time (EST) Temp. Windchill Dew Point Humidity Pressure Visibility Wind Dir Wind Speed Gust Speed Precip Events Conditions
12:15 AM 28.4 °F - 19.4 °F 69% 29.96 in 10.0 mi Calm Calm - N/A   Overcast
12:35 AM 28.4 °F 24.6 °F 19.4 °F 69% 29.95 in 10.0 mi NNE 3.5 mph - N/A   Overcast
12:55 AM 28.4 °F - 19.4 °F 69% 29.96 in 10.0 mi Calm Calm - N/A   Overcast
1:15 AM 30.2 °F 26.7 °F 19.4 °F 64% 29.95 in 10.0 mi SE 3.5 mph - N/A   Overcast
1:35 AM 30.2 °F 26.7 °F 19.4 °F 64% 29.95 in 10.0 mi ESE 3.5 mph - N/A   Overcast
1:55 AM 30.2 °F - 19.4 °F 64% 29.94 in 10.0 mi Calm Calm - N/A   Overcast
2:15 AM 30.2 °F 26.7 °F 21.2 °F 69% 29.93 in 10.0 mi East 3.5 mph - N/A   Overcast
2:35 AM 30.2 °F 26.7 °F 21.2 °F 69% 29.93 in 10.0 mi ESE 3.5 mph - N/A   Overcast
2:55 AM 30.2 °F - 21.2 °F 69% 29.93 in 10.0 mi Calm Calm - N/A   Overcast
3:15 AM 30.2 °F - 21.2 °F 69% 29.92 in 10.0 mi Calm Calm - N/A   Scattered Clouds
3:35 AM 30.2 °F - 21.2 °F 69% 29.91 in 10.0 mi Calm Calm - N/A   Clear
3:55 AM 30.2 °F - 21.2 °F 69% 29.90 in 10.0 mi Calm Calm - N/A   Clear
4:15 AM 30.2 °F - 21.2 °F 69% 29.89 in 10.0 mi Calm Calm - N/A   Mostly Cloudy
4:35 AM 30.2 °F - 23.0 °F 75% 29.89 in 10.0 mi Calm Calm - N/A   Overcast
4:55 AM 30.2 °F 25.4 °F 23.0 °F 75% 29.88 in 10.0 mi SSE 4.6 mph - N/A   Overcast
5:15 AM 30.2 °F - 21.2 °F 69% 29.88 in 10.0 mi Calm Calm - N/A   Mostly Cloudy
5:35 AM 28.4 °F 24.6 °F 21.2 °F 74% 29.87 in 10.0 mi South 3.5 mph - N/A   Scattered Clouds
5:55 AM 28.4 °F - 23.0 °F 80% 29.87 in 10.0 mi Calm Calm - N/A   Clear
6:15 AM 28.4 °F 23.3 °F 21.2 °F 74% 29.86 in 10.0 mi SSE 4.6 mph - N/A   Clear
6:35 AM 26.6 °F 22.6 °F 21.2 °F 80% 29.86 in 10.0 mi South 3.5 mph - N/A   Clear
6:55 AM 26.6 °F 21.2 °F 23.0 °F 86% 29.86 in 10.0 mi South 4.6 mph - N/A   Clear
7:15 AM 26.6 °F 21.2 °F 21.2 °F 80% 29.85 in 10.0 mi South 4.6 mph - N/A   Clear
7:35 AM 26.6 °F 20.0 °F 21.2 °F 80% 29.86 in 10.0 mi SSE 5.8 mph - N/A   Clear
7:55 AM 28.4 °F 23.3 °F 21.2 °F 74% 29.86 in 10.0 mi South 4.6 mph - N/A   Clear
8:15 AM 30.2 °F 24.3 °F 23.0 °F 75% 29.86 in 10.0 mi SSW 5.8 mph - N/A   Clear
8:35 AM 32.0 °F 25.6 °F 23.0 °F 69% 29.85 in 10.0 mi South 6.9 mph - N/A   Clear
8:55 AM 32.0 °F 26.4 °F 23.0 °F 69% 29.85 in 10.0 mi SSE 5.8 mph - N/A   Clear
9:15 AM 33.8 °F 27.0 °F 23.0 °F 65% 29.85 in 10.0 mi South 8.1 mph - N/A   Clear
9:35 AM 35.6 °F 29.2 °F 23.0 °F 60% 29.83 in 10.0 mi South 8.1 mph - N/A   Clear
9:55 AM 37.4 °F 30.3 °F 24.8 °F 60% 29.85 in 10.0 mi South 10.4 mph - N/A   Clear
10:15 AM 41.0 °F 34.3 °F 24.8 °F 53% 29.85 in 10.0 mi South 11.5 mph - N/A   Clear
10:35 AM 42.8 °F 35.8 °F 26.6 °F 53% 29.85 in 10.0 mi South 13.8 mph 18.4 mph N/A   Clear
10:55 AM 44.6 °F 39.7 °F 26.6 °F 49% 29.85 in 10.0 mi South 9.2 mph 16.1 mph N/A   Clear
11:15 AM 46.4 °F 41.9 °F 26.6 °F 46% 29.85 in 10.0 mi South 9.2 mph - N/A   Clear
11:35 AM 48.2 °F - 26.6 °F 43% 29.84 in 10.0 mi South 11.5 mph 17.3 mph N/A   Clear
11:55 AM 50.0 °F - 28.4 °F 43% 29.82 in 10.0 mi South 17.3 mph 25.3 mph N/A   Clear
12:15 PM 51.8 °F - 30.2 °F 44% 29.80 in 10.0 mi SSW 13.8 mph 20.7 mph N/A   Clear
12:35 PM 50.0 °F - 28.4 °F 43% 29.80 in 10.0 mi South 16.1 mph 21.9 mph N/A   Scattered Clouds
12:55 PM 50.0 °F - 30.2 °F 47% 29.80 in 10.0 mi SW 20.7 mph 28.8 mph N/A   Mostly Cloudy
1:15 PM 50.0 °F - 32.0 °F 50% 29.80 in 10.0 mi SSW 15.0 mph 21.9 mph N/A   Overcast
1:35 PM 51.8 °F - 32.0 °F 47% 29.79 in 10.0 mi SSW 19.6 mph 26.5 mph N/A   Mostly Cloudy
1:55 PM 51.8 °F - 32.0 °F 47% 29.78 in 10.0 mi SW 19.6 mph 24.2 mph N/A   Scattered Clouds
2:15 PM 51.8 °F - 32.0 °F 47% 29.78 in 10.0 mi SW 15.0 mph 26.5 mph N/A   Clear
2:35 PM 51.8 °F - 30.2 °F 44% 29.79 in 10.0 mi SSW 17.3 mph 26.5 mph N/A   Clear
2:55 PM 51.8 °F - 30.2 °F 44% 29.80 in 10.0 mi SSW 13.8 mph 25.3 mph N/A   Clear
3:15 PM 50.0 °F - 30.2 °F 47% 29.80 in 10.0 mi South 18.4 mph 24.2 mph N/A   Clear
3:35 PM 50.0 °F - 32.0 °F 50% 29.81 in 10.0 mi SSW 12.7 mph 19.6 mph N/A   Clear
3:55 PM 50.0 °F - 30.2 °F 47% 29.81 in 10.0 mi SW 15.0 mph 21.9 mph N/A   Clear
4:15 PM 50.0 °F - 30.2 °F 47% 29.82 in 10.0 mi SW 17.3 mph 24.2 mph N/A   Clear
4:35 PM 48.2 °F - 30.2 °F 50% 29.83 in 10.0 mi SSW 12.7 mph 23.0 mph N/A   Clear
4:55 PM 46.4 °F 40.4 °F 30.2 °F 53% 29.83 in 10.0 mi SSW 13.8 mph 23.0 mph N/A   Clear
5:15 PM 46.4 °F 40.7 °F 30.2 °F 53% 29.83 in 10.0 mi SSW 12.7 mph 21.9 mph N/A   Clear
5:35 PM 44.6 °F 38.8 °F 30.2 °F 57% 29.84 in 10.0 mi SSW 11.5 mph 19.6 mph N/A   Clear
5:55 PM 44.6 °F 39.7 °F 30.2 °F 57% 29.84 in 10.0 mi South 9.2 mph - N/A   Clear
6:15 PM 44.6 °F 39.2 °F 30.2 °F 57% 29.84 in 10.0 mi SSW 10.4 mph - N/A   Clear
6:35 PM 44.6 °F 39.7 °F 30.2 °F 57% 29.84 in 10.0 mi South 9.2 mph 17.3 mph N/A   Clear
6:55 PM 42.8 °F 37.5 °F 30.2 °F 61% 29.84 in 10.0 mi SSW 9.2 mph - N/A   Clear
7:15 PM 44.6 °F 38.8 °F 30.2 °F 57% 29.83 in 10.0 mi SSW 11.5 mph - N/A   Clear
7:55 PM 42.8 °F 37.5 °F 28.4 °F 57% 29.84 in 10.0 mi South 9.2 mph - N/A   Clear
8:15 PM 41.0 °F 35.8 °F 28.4 °F 61% 29.83 in 10.0 mi SE 8.1 mph - N/A   Clear
8:35 PM 41.0 °F 37.1 °F 30.2 °F 65% 29.83 in 10.0 mi SE 5.8 mph - N/A   Clear
8:55 PM 39.2 °F 33.6 °F 28.4 °F 65% 29.83 in 10.0 mi South 8.1 mph - N/A   Clear
9:15 PM 42.8 °F 38.0 °F 30.2 °F 61% 29.82 in 10.0 mi SSE 8.1 mph - N/A   Clear
9:35 PM 41.0 °F 35.2 °F 28.4 °F 61% 29.81 in 10.0 mi South 9.2 mph - N/A   Clear
9:55 PM 41.0 °F 38.0 °F 28.4 °F 61% 29.82 in 10.0 mi South 4.6 mph - N/A   Clear
10:15 PM 41.0 °F 36.4 °F 28.4 °F 61% 29.81 in 10.0 mi SSE 6.9 mph - N/A   Clear
10:35 PM 41.0 °F 35.2 °F 30.2 °F 65% 29.81 in 10.0 mi South 9.2 mph - N/A   Clear
10:55 PM 41.0 °F 35.2 °F 30.2 °F 65% 29.80 in 10.0 mi South 9.2 mph - N/A   Clear
11:15 PM 41.0 °F 34.3 °F 30.2 °F 65% 29.80 in 10.0 mi South 11.5 mph 17.3 mph N/A   Clear
11:35 PM 41.0 °F 35.2 °F 30.2 °F 65% 29.78 in 10.0 mi SSE 9.2 mph - N/A   Clear
11:55 PM 41.0 °F 35.8 °F 30.2 °F 65% 29.78 in 10.0 mi SSE 8.1 mph - N/A   Clear